Total_Precipitation_Accumulation
0.11 0.12 0.14 0.17 0.18 0.18 0.19 0.24 0.29 0.32 0.34 0.42 0.53 0.62 0.72 0.90 1.11 1.17 1.22 1.35 1.37 1.40 1.54 1.63 1.65 1.58 1.49 1.52 1.68 2.00 1.88 1.52 1.36 1.40 1.27 1.05 0.92 0.95 0.87 0.90 0.98 0.98 0.98
0.09 0.08 0.09 0.12 0.12 0.10 0.12 0.18 0.27 0.36 0.42 0.48 0.62 0.77 1.00 1.11 1.25 1.40 1.39 1.41 1.46 1.49 1.57 1.78 1.88 1.81 1.77 1.85 1.85 2.04 2.18 1.93 1.70 1.66 1.83 1.61 1.34 0.98 0.78 0.83 0.90 0.97 1.06
0.09 0.07 0.07 0.08 0.10 0.09 0.11 0.18 0.32 0.51 0.72 0.82 1.05 1.33 1.58 1.66 1.58 1.57 1.61 1.59 1.63 1.70 1.66 1.77 1.98 1.94 1.88 1.88 2.04 2.27 2.51 2.47 2.24 1.99 2.07 1.82 1.61 1.47 0.97 0.75 0.83 0.93 1.04
0.12 0.10 0.11 0.10 0.10 0.13 0.22 0.38 0.62 0.92 1.17 1.32 1.52 1.72 1.83 1.87 1.80 1.81 1.79 1.77 1.69 1.62 1.61 1.72 1.93 2.06 2.14 2.17 2.23 2.22 2.49 2.68 2.53 2.43 2.13 1.84 1.71 1.78 1.53 1.04 0.81 0.86 0.93
0.20 0.21 0.23 0.24 0.30 0.40 0.59 0.88 1.14 1.38 1.53 1.58 1.68 1.88 2.03 2.19 2.20 2.08 1.93 1.82 1.78 1.70 1.61 1.66 1.74 1.78 1.86 1.97 2.10 2.18 2.37 2.47 2.60 2.59 2.42 2.18 2.00 1.57 1.54 1.53 1.25 1.01 0.82
0.31 0.36 0.47 0.58 0.73 0.83 1.01 1.22 1.37 1.51 1.51 1.52 1.58 1.71 1.90 2.06 2.08 2.09 2.05 1.92 1.78 1.67 1.58 1.53 1.64 1.66 1.66 1.78 1.91 2.00 2.21 2.36 2.47 2.53 2.41 2.25 2.18 1.93 1.67 1.52 1.48 1.36 1.04
0.42 0.58 0.73 0.87 0.99 1.10 1.20 1.23 1.23 1.28 1.30 1.32 1.36 1.44 1.50 1.53 1.59 1.70 1.62 1.49 1.36 1.31 1.30 1.24 1.30 1.43 1.48 1.66 1.73 1.67 1.72 1.88 2.08 2.24 2.26 2.21 2.10 2.09 2.00 1.84 1.68 1.48 1.15
0.68 0.78 0.89 0.98 1.02 1.15 1.21 1.16 1.14 1.13 1.06 1.00 1.05 1.07 1.12 1.17 1.20 1.22 1.17 1.09 1.04 1.01 0.97 0.97 0.98 1.04 1.13 1.34 1.55 1.53 1.55 1.61 1.69 1.78 2.03 2.11 2.04 2.06 1.91 1.78 1.78 1.58 1.33
0.94 1.09 1.09 1.00 0.91 0.95 1.02 1.01 0.97 0.93 0.84 0.79 0.82 0.85 0.92 0.95 0.93 0.91 0.86 0.84 0.78 0.78 0.76 0.78 0.86 0.92 0.91 1.02 1.15 1.33 1.41 1.46 1.53 1.57 1.72 1.80 1.84 1.81 1.70 1.71 1.70 1.60 1.38
1.00 1.25 1.39 1.28 1.01 0.81 0.82 0.79 0.77 0.80 0.79 0.75 0.77 0.77 0.70 0.65 0.66 0.69 0.63 0.62 0.67 0.71 0.70 0.67 0.68 0.74 0.77 0.87 0.98 1.03 1.14 1.21 1.37 1.54 1.66 1.66 1.69 1.72 1.65 1.60 1.67 1.63 1.45
1.18 1.31 1.37 1.24 1.06 0.79 0.70 0.69 0.66 0.70 0.77 0.70 0.72 0.71 0.61 0.49 0.47 0.47 0.45 0.45 0.49 0.55 0.56 0.59 0.65 0.65 0.67 0.69 0.70 0.75 0.81 0.88 0.99 1.04 1.15 1.35 1.55 1.61 1.60 1.63 1.66 1.66 1.56
0.83 0.85 0.97 0.98 0.92 0.78 0.71 0.76 0.80 0.79 0.72 0.65 0.62 0.58 0.51 0.44 0.43 0.41 0.38 0.40 0.45 0.47 0.49 0.54 0.58 0.58 0.64 0.66 0.66 0.65 0.68 0.77 0.85 0.85 0.85 0.95 1.18 1.34 1.45 1.51 1.53 1.60 1.61
0.60 0.54 0.64 0.79 0.74 0.67 0.70 0.77 0.91 0.91 0.82 0.70 0.60 0.56 0.52 0.49 0.47 0.42 0.41 0.41 0.48 0.59 0.62 0.61 0.64 0.62 0.64 0.64 0.65 0.68 0.69 0.72 0.76 0.79 0.81 0.87 0.97 1.12 1.20 1.31 1.41 1.50 1.62
0.47 0.42 0.41 0.42 0.42 0.44 0.48 0.59 0.84 1.03 1.01 0.90 0.77 0.68 0.61 0.54 0.48 0.44 0.43 0.42 0.45 0.51 0.54 0.63 0.71 0.79 0.83 0.82 0.78 0.77 0.74 0.70 0.71 0.77 0.84 0.86 0.87 0.98 1.19 1.33 1.40 1.43 1.53
0.29 0.24 0.20 0.21 0.23 0.27 0.34 0.45 0.72 0.91 0.93 0.92 0.80 0.66 0.55 0.45 0.43 0.46 0.49 0.46 0.41 0.44 0.45 0.53 0.62 0.72 0.81 0.86 0.86 0.72 0.61 0.62 0.67 0.67 0.68 0.76 0.83 0.86 1.00 1.16 1.40 1.42 1.52
0.20 0.18 0.16 0.14 0.11 0.11 0.16 0.27 0.46 0.62 0.68 0.74 0.70 0.54 0.48 0.43 0.39 0.42 0.48 0.49 0.39 0.38 0.40 0.44 0.42 0.45 0.50 0.66 0.66 0.54 0.45 0.50 0.60 0.67 0.69 0.69 0.70 0.72 0.76 0.79 1.04 1.24 1.35
0.23 0.23 0.22 0.20 0.17 0.14 0.14 0.17 0.24 0.33 0.40 0.45 0.45 0.36 0.34 0.41 0.42 0.45 0.44 0.38 0.31 0.34 0.36 0.32 0.28 0.30 0.34 0.39 0.38 0.43 0.45 0.48 0.52 0.61 0.70 0.74 0.72 0.78 0.86 0.82 0.86 0.95 1.03
0.29 0.25 0.21 0.18 0.15 0.12 0.12 0.13 0.15 0.18 0.20 0.20 0.17 0.14 0.21 0.30 0.32 0.30 0.28 0.23 0.23 0.29 0.36 0.31 0.29 0.33 0.30 0.32 0.37 0.40 0.43 0.56 0.62 0.61 0.62 0.73 0.79 0.84 0.99 0.98 1.06 0.99 0.89
0.13 0.08 0.06 0.04 0.03 0.03 0.03 0.03 0.02 0.02 0.02 0.02 0.02 0.04 0.05 0.06 0.06 0.06 0.07 0.11 0.15 0.20 0.19 0.23 0.37 0.38 0.34 0.42 0.40 0.35 0.42 0.55 0.62 0.58 0.61 0.73 0.83 0.96 1.06 1.11 1.14 1.04 0.94
0.01 0.01 0.00 0.01 0.00 0.00 0.00 0.00 0.00 0.00 0.00 0.00 0.00 0.00 0.01 0.01 0.01 0.01 0.01 0.03 0.06 0.09 0.10 0.14 0.27 0.34 0.36 0.36 0.28 0.28 0.40 0.53 0.61 0.62 0.63 0.85 0.86 0.93 0.98 1.04 1.16 1.18 1.04
0.00 0.00 0.00 0.00 0.00 0.00 0.00 0.00 0.00 0.00 0.00 0.00 0.00 0.00 0.01 0.01 0.01 0.02 0.01 0.01 0.01 0.02 0.06 0.10 0.14 0.15 0.16 0.16 0.17 0.24 0.31 0.38 0.50 0.58 0.62 0.60 0.72 0.74 0.84 0.96 1.03 1.23 1.11
0.00 0.00 0.00 0.00 0.00 0.00 0.00 0.00 0.00 0.00 0.00 0.00 0.00 0.00 0.01 0.01 0.01 0.03 0.02 0.01 0.01 0.02 0.03 0.06 0.10 0.09 0.08 0.07 0.10 0.13 0.17 0.24 0.32 0.40 0.52 0.52 0.60 0.65 0.72 0.74 0.91 1.08 1.05
0.00 0.00 0.00 0.00 0.00 0.00 0.00 0.00 0.00 0.00 0.00 0.00 0.01 0.00 0.00 0.01 0.01 0.01 0.01 0.01 0.01 0.02 0.02 0.04 0.08 0.09 0.10 0.09 0.09 0.11 0.14 0.19 0.23 0.26 0.41 0.49 0.56 0.55 0.55 0.67 0.85 0.91 0.95
0.00 0.00 0.00 0.00 0.00 0.00 0.00 0.00 0.00 0.00 0.00 0.00 0.00 0.00 0.01 0.01 0.01 0.01 0.01 0.01 0.02 0.02 0.02 0.04 0.06 0.11 0.13 0.09 0.09 0.13 0.17 0.20 0.22 0.25 0.38 0.50 0.56 0.55 0.55 0.62 0.74 0.81 0.94
0.00 0.00 0.00 0.00 0.00 0.00 0.00 0.00 0.00 0.00 0.00 0.00 0.00 0.00 0.01 0.01 0.01 0.01 0.01 0.01 0.01 0.02 0.03 0.03 0.05 0.06 0.07 0.07 0.11 0.15 0.19 0.22 0.24 0.32 0.49 0.63 0.65 0.65 0.61 0.65 0.75 0.74 0.72
0.00 0.00 0.00 0.00 0.00 0.00 0.00 0.00 0.00 0.00 0.00 0.00 0.00 0.00 0.01 0.01 0.01 0.02 0.02 0.01 0.02 0.03 0.03 0.03 0.04 0.04 0.06 0.08 0.12 0.17 0.22 0.24 0.34 0.51 0.69 0.81 0.89 0.88 0.80 0.76 0.75 0.69 0.67